[ hide orbit diagram ]
For accurate long-term ephemerides, please instead use our Horizons system.This orbit viewer was implemented using two-body methods, and hence should not be used for determining accurate long-term trajectories (over several years or decades) or planetary encounter circumstances.
Orbital Elements at Epoch 2459000.5 (2020-May-31.0) TDB
Reference: JPL 14 (heliocentric ecliptic J2000)
Element | Value | Uncertainty (1-sigma) | Units |
e | .1414268642439014 | 7.4118e-08 | |
a | 2.366231852464506 | 1.3971e-08 | au |
q | 2.031583101496413 | 1.7259e-07 | au |
i | 7.882294869828085 | 7.8231e-06 | deg |
node | .4754770530987248 | 3.3218e-05 | deg |
peri | 184.8675344742427 | 3.7144e-05 | deg |
M | 58.11966070605884 | 1.6532e-05 | deg |
tp | 2458785.862826441537 (2019-Oct-29.36282644) | 6.0466e-05 | TDB |
period | 1329.487845289359 3.64 | 1.1775e-05 3.224e-08 | d yr |
n | .2707809637188877 | 2.3982e-09 | deg/d |
Q | 2.700880603432599 | 1.5947e-08 | au |
|
| | Orbit Determination Parameters
Additional Information
|
[ show covariance matrix ]
Physical Parameter Table
Parameter |
Symbol |
Value |
Units |
Sigma |
Reference |
Notes |
absolute magnitude |
H |
16.3 |
|
n/a |
MPO422317 |
|
|
100197 (1994 CQ17) Discovered 1994-Feb-08 by Elst, E. W. at La Silla |
Reference: 20051019/Numbers.arc | Last Updated: 2005-10-26 |
|
|